Lid_Strength_Index
2 2 1 1 1 1 1 1 1 0 0 0 0 1 1 0 -0 -0 -0 -2 -2 -2 -2 -2 -2 -2 -2 -1 -1 -1 -1 -1 -1 -1 -1 -1 -2 -1 -2 -2 -2 -2 -1
2 1 1 2 2 2 1 1 1 1 1 1 1 0 1 0 0 -0 -0 -0 -2 -2 -2 -2 -2 -2 -2 -2 -1 -1 -1 -1 -1 -1 -1 -1 -1 -2 -2 -2 -1 -1 -1
2 1 2 2 2 1 1 1 1 1 1 1 1 1 0 0 0 0 0 0 -1 -2 -2 -2 -2 -2 -2 -2 -1 -1 -1 -1 -1 -1 -1 -1 -1 -2 -2 -2 -2 -1 -1
0 1 2 2 1 1 2 2 2 2 2 2 2 2 1 1 0 0 0 0 0 -0 -1 -2 -2 -2 -2 -2 -1 -1 -1 -1 -1 -1 -1 -1 -2 -2 -2 -1 -1 -1 -1
0 1 1 2 1 1 2 2 2 2 2 2 2 2 1 1 1 0 0 0 0 0 0 -1 -2 -2 -2 -2 -1 -1 -1 -1 -1 -1 -1 -2 -2 -2 -2 -1 -1 -1 -1
0 1 1 2 1 2 2 2 2 2 2 2 1 2 1 1 1 1 0 -0 1 1 0 0 -0 -0 -1 -1 -1 -1 -1 -1 -1 -1 -1 -1 -2 -2 -1 -1 -1 -1 -0
1 1 1 1 2 2 2 2 2 3 2 2 3 3 2 1 2 2 1 1 1 0 0 0 -0 0 -0 -1 -1 -1 -1 -1 -1 -1 -1 -1 -1 -1 -1 -1 -1 -0 -0
1 1 1 2 2 2 2 2 3 3 3 2 3 3 6 4 2 2 2 2 1 1 0 0 0 -0 0 0 0 -1 -1 -1 -1 -1 -1 -1 -1 -1 -1 -1 -1 -1 -1
1 1 1 1 2 2 2 2 2 3 4 3 2 4 6 7 5 3 2 2 2 1 1 1 0 -0 -0 0 -0 -1 -1 -1 -1 -1 -1 -1 -2 -2 -2 -1 -1 -0 1
1 0 1 1 1 2 2 2 2 3 3 4 3 2 2 3 6 7 4 2 2 1 1 1 1 0 0 0 -0 -0 0 -0 -1 -1 -1 -1 -1 -2 -2 -1 -0 -0 0
2 1 1 1 2 2 2 2 2 2 3 3 4 4 3 3 3 5 7 5 3 2 2 2 1 0 1 0 1 0 1 0 -0 -0 -1 -2 -1 -2 -1 -0 0 -0 1
2 2 1 2 1 2 2 2 2 2 2 2 2 3 3 4 4 4 5 5 5 4 1 1 1 1 1 0 -0 0 1 1 1 0 1 0 -1 -1 -1 -0 -0 0 0
3 2 2 2 2 1 1 2 2 2 2 2 2 3 2 3 3 3 4 5 5 4 2 1 1 1 -0 -0 0 -0 0 1 1 1 2 1 1 -0 0 -0 0 -0 -1
2 2 1 1 2 1 1 2 2 2 2 2 2 2 3 2 2 2 3 4 6 4 3 3 2 2 0 0 0 -0 1 2 2 2 2 2 1 0 1 0 -0 0 -1
2 1 2 2 1 1 1 2 2 2 2 2 2 2 2 2 2 2 2 2 4 6 6 3 3 2 1 0 0 1 2 2 2 2 2 2 2 2 2 1 1 1 1
2 2 2 2 1 1 1 2 2 1 1 2 2 2 2 2 2 2 1 2 2 4 6 3 2 2 2 1 0 1 1 1 2 3 3 2 2 2 2 3 2 2 2
1 2 1 1 1 1 1 2 2 1 2 2 2 2 2 2 2 2 2 2 3 3 4 3 2 2 2 2 2 2 2 2 2 3 3 3 4 3 3 4 4 2 2
2 1 1 1 1 1 2 2 2 1 2 2 2 2 2 1 2 2 2 3 3 2 3 4 3 2 2 2 2 2 2 2 3 3 3 4 4 4 4 4 5 4 4
1 1 1 1 1 1 2 2 2 1 2 1 2 2 2 2 2 2 2 2 2 2 2 3 3 2 2 2 2 2 3 3 3 3 4 4 4 4 4 5 6 6 6
1 1 1 1 1 1 1 1 1 1 1 1 2 2 2 2 2 2 2 2 2 3 2 3 3 2 3 3 3 4 4 3 4 3 3 4 4 5 6 6 6 6 6
2 1 1 1 2 3 3 2 1 2 2 2 2 1 2 2 2 2 2 2 2 3 3 3 3 3 4 4 4 4 4 3 3 3 4 5 6 7 7 6 4 4 6
1 1 1 2 3 2 8 7 4 2 2 2 2 3 3 3 4 5 5 5 3 3 4 4 4 4 4 4 4 4 4 5 5 3 4 6 6 8 7 7 6 7 6
1 2 2 3 4 4 9 10 8 2 2 2 2 1 2 3 3 4 6 6 6 6 4 3 4 4 4 4 4 4 4 5 5 4 5 7 6 7 7 6 7 7 8
3 3 2 3 4 4 9 10 7 2 2 2 2 2 1 3 3 2 3 3 3 3 3 2 3 3 3 3 3 4 5 5 3 3 4 7 6 8 8 9 7 8 8
2 2 2 4 4 4 9 11 4 2 2 2 1 1 1 2 8 7 2 3 3 3 6 7 7 8 9 7 5 4 4 4 3 2 3 6 7 8 9 10 10 8 8
2 1 2 3 4 4 9 10 4 2 2 3 3 3 6 4 9 8 2 3 3 3 3 4 4 6 6 6 6 3 2 3 3 3 3 5 7 8 9 9 10 10 11